Content
SEND FEEDBACK

Daily
Averages
Monthly
Summary
United States of America

JACKSONVILLE, VERMONT


Home > North America > United States > Vermont
Elevation: 800 feet     Latitude: 42 44N     Longitude: 072 44W

WEATHER
 
SELECT A DAY
Number of Records: 199,906;   Date Range: 10/28/95 - 10/23/14
 
SHARE

PRINT THIS DATA

[ ← Previous Day ]
WEATHER ALMANAC - JUNE 6, 2014
[ Next Day → ]
[ °C ]   °F
Weather ElementAverageHighLow
Temperature60.2 °F70 °F (2:52 pm)53.6 °F (5:50 am)
Dewpoint51.6 °F54 °F (8:52 pm)50 °F (1:41 am)
Humidity74.7 %94 % (5:50 am)49 % (3:52 pm)
Barometer29.84 in29.96 in (11:52 pm)29.77 in (2:26 am)
Wind Speed4.1 mph8.1 mph (1:41 am)
Weather ElementAverage
Visibility9.5 mi
Wind DirectionESE (110.7 °)

Weather ElementTotal
Precipitation---
Heating Degree Days3.2 (Base 65)
Growing Degree Days11.8 (Base 50)
Averaged from 27 records on June 6, 2014
WEATHER CONDITIONS BREAKOUT
WIND DIRECTION BREAKOUT
WEATHER BY HOUR - JUNE 6, 2014
[ °C ]   °F
Local TimeTemperatureDewpointHumidityBarometerVisibilityWind DirectionWind SpeedGust SpeedPrecipitationEventsConditions
1:41 AM55.9 °F50.0 °F80 %29.78 in10.0 miWSW (240°)8.1 mphOvercast
1:52 AM55.9 °F50.0 °F80 %29.78 in10.0 miWest (270°)3.5 mphOvercast
2:26 AM55.9 °F50.0 °F80 %29.77 in10.0 miWNW (290°)3.5 mphOvercast
2:52 AM55.9 °F50.0 °F80 %29.78 in10.0 miVariable3.5 mphOvercast
2:59 AM55.9 °F50.0 °F80 %29.77 in10.0 miCalmOvercast
3:52 AM55.9 °F50.0 °F80 %29.78 in10.0 miWSW (250°)6.9 mphOvercast
4:52 AM55.9 °F50.0 °F80 %29.80 in10.0 miWSW (250°)5.8 mphOvercast
5:50 AM53.6 °F51.8 °F94 %29.81 in3.0 miWest (270°)3.5 mph0.00 inRainLight Rain
5:52 AM54.0 °F52.0 °F93 %29.81 in3.0 miCalm0.00 inRainLight Rain
6:52 AM55.0 °F52.0 °F89 %29.83 in10.0 miVariable4.6 mph0.00 inOvercast
7:52 AM55.9 °F52.0 °F87 %29.84 in10.0 miVariable4.6 mphOvercast
8:52 AM59.0 °F52.0 °F78 %29.85 in10.0 miVariable4.6 mphOvercast
9:52 AM60.1 °F51.1 °F72 %29.86 in10.0 miVariable3.5 mphOvercast
10:19 AM62.1 °F52.0 °F70 %29.86 in10.0 miVariable4.6 mphOvercast
11:52 AM63.0 °F52.0 °F67 %29.86 in10.0 miVariable3.5 mphOvercast
12:52 PM64.9 °F52.0 °F63 %29.86 in10.0 miCalmOvercast
1:52 PM69.1 °F52.0 °F54 %29.84 in10.0 miNW (320°)8.1 mphMostly Cloudy
2:52 PM70.0 °F52.0 °F53 %29.84 in10.0 miVariable4.6 mphOvercast
3:52 PM70.0 °F50.0 °F49 %29.84 in10.0 miVariable6.9 mphOvercast
4:52 PM69.1 °F51.1 °F53 %29.84 in10.0 miVariable3.5 mphOvercast
5:52 PM69.1 °F53.1 °F57 %29.85 in10.0 miWest (270°)5.8 mphOvercast
6:52 PM66.9 °F53.1 °F61 %29.87 in10.0 miWest (260°)5.8 mphOvercast
7:52 PM66.0 °F53.1 °F63 %29.89 in10.0 miWSW (240°)4.6 mphMostly Cloudy
8:52 PM60.1 °F54.0 °F80 %29.91 in10.0 miNNW (330°)5.8 mphClear
9:52 PM57.0 °F53.1 °F87 %29.93 in10.0 miCalmClear
10:52 PM54.0 °F52.0 °F93 %29.95 in10.0 miCalmClear
11:52 PM54.0 °F52.0 °F93 %29.96 in10.0 miVariable4.6 mphClear
Hourly data recorded from KAQW, located miles away from Jacksonville, Vermont







STORIES FROM OUR PARTNERS